Effective Sunday, March 17, 2024, the National Weather Service National Data Buoy Center will discontinue its Dial-A-Buoy Interactive Voice Response system. For more information, see Service Change Notice 24-06 (PDF).

Station FRDF1 - 8720030 - Fernandina Beach, FL Image indicating link to RSS feed of recent meteorological observations for station FRDF1


Conditions at FRDF1 as of
(2:18 am EST)
0718 GMT on 02/23/2024:
     

Click on the graph icon in the table below to see a time series plot of the last five days of that observation.

5-day plot - Wind Direction Wind Direction (WDIR): S ( 170 deg true )
5-day plot - Wind Speed Wind Speed (WSPD): 5.1 kts
5-day plot - Wind Gust Wind Gust (GST): 6.0 kts
5-day plot - Atmospheric Pressure Atmospheric Pressure (PRES):29.85 in
5-day plot - Air Temperature Air Temperature (ATMP): 54.7 °F
5-day plot - Water Temperature Water Temperature (WTMP): 57.9 °F
5-day plot - Wind Speed at 10 Meters Wind Speed at 10 meters (WSPD10M): 5.8 kts
5-day plot - Wind Speed at 20 Meters Wind Speed at 20 meters (WSPD20M): 5.8 kts
5-day plot -  Wind Speed, Wind Gust and Atmospheric Pressure Combined plot of Wind Speed, Gust, and Air Pressure
NOS Water Level Observation Network Water Level
Previous observations
TIME
(EST)
5-day plot - Wind Direction
WDIR
 
5-day plot - Wind Speed
WSPD
kts
5-day plot - Wind Gust
GST
kts
5-day plot - Wave Height
WVHT
ft
5-day plot - Dominant Wave Period
DPD
sec
5-day plot - Average Wave Period
APD
sec
5-day plot - Mean Wave Direction
MWD
 
5-day plot - Atmospheric Pressure
PRES
in
5-day plot - Pressure Tendency
PTDY
in
5-day plot - Air Temperature
ATMP
°F
5-day plot - Water Temperature
WTMP
°F
5-day plot - Dew Point
DEWP
°F
5-day plot - Salinity
SAL
psu
5-day plot - Visibility
VIS
nmi
5-day plot - Tide (above MLLW)
TIDE
ft
2024-02-23 02:12 am S 4.1 7.0----29.85- 56.1 57.9----
2024-02-23 02:06 am S 5.1 8.0----29.86- 55.9 57.9----
2024-02-23 02:00 am S 5.1 8.0----29.86-0.04 55.9 57.9----
2024-02-23 01:54 am S 4.1 6.0----29.87- 56.1 57.9----
2024-02-23 01:48 am S 5.1 8.0----29.86- 56.3 57.9----
2024-02-23 01:42 am S 5.1 7.0----29.87- 56.5 57.9----
2024-02-23 01:36 am S 5.1 9.9----29.86- 56.8 57.9----
2024-02-23 01:30 am S 5.1 12.0----29.87- 56.8 57.9----
2024-02-23 01:24 amSSW 6.0 11.1----29.87- 56.7 57.9----
2024-02-23 01:18 am S 5.1 8.9----29.87- 56.5 57.9----
2024-02-23 01:12 am S 4.1 6.0----29.87- 56.7 57.9----
2024-02-23 01:06 am S 5.1 8.0----29.87- 57.0 57.9----
2024-02-23 01:00 amSSW 6.0 13.0----29.87-0.04 57.0 57.9----
2024-02-23 12:54 amSSW 5.1 9.9----29.88- 56.7 57.9----
2024-02-23 12:48 amSSW 6.0 11.1----29.88- 56.8 57.9----
2024-02-23 12:42 am SW 5.1 13.0----29.88- 57.2 57.7----
2024-02-23 12:36 amSSW 5.1 7.0----29.88- 57.6 57.7----
2024-02-23 12:30 amSSW 2.9 7.0----29.88- 57.4 57.7----
2024-02-23 12:24 amSSW 4.1 7.0----29.88- 57.6 57.6----
2024-02-23 12:18 am S 2.9 7.0----29.88- 57.7 57.6----
2024-02-23 12:12 amSSW 2.9 8.0----29.88- 57.7 57.6----
2024-02-23 12:06 amSSW 2.9 7.0----29.88- 57.9 57.4----
2024-02-23 12:00 amSSW 4.1 6.0----29.89-0.04 58.1 57.4----
2024-02-22 11:54 pm S 4.1 7.0----29.89- 58.1 57.4----
2024-02-22 11:48 pmSSW 2.9 7.0----29.89- 58.1 57.4----
2024-02-22 11:42 pm S 2.9 8.0----29.89- 58.1 57.4----
2024-02-22 11:36 pmSSW 4.1 7.0----29.89- 57.7 57.4----
2024-02-22 11:30 pmSSW 5.1 13.0----29.90- 58.1 57.4----
2024-02-22 11:24 pmSSW 6.0 11.1----29.90- 58.1 57.4----
2024-02-22 11:18 pmSSW 5.1 8.9----29.90- 58.5 57.4----
2024-02-22 11:12 pmSSW 5.1 8.9----29.90- 58.6 57.4----
2024-02-22 11:06 pmSSW 2.9 6.0----29.90- 58.8 57.4----
2024-02-22 11:00 pm S 4.1 6.0----29.91-0.02 58.6 57.4----
2024-02-22 10:54 pmSSW 5.1 9.9----29.91- 59.0 57.4----
2024-02-22 10:48 pmSSW 4.1 8.9----29.91- 58.8 57.4----
2024-02-22 10:42 pmSSW 4.1 5.1----29.91- 58.8 57.4----
2024-02-22 10:36 pmSSW 4.1 8.0----29.92- 58.6 57.4----
2024-02-22 10:30 pmSSW 5.1 8.0----29.92- 57.9 57.4----
2024-02-22 10:24 pm S 4.1 9.9----29.92- 58.1 57.4----
2024-02-22 10:18 pm S 4.1 6.0----29.92- 58.1 57.4----
2024-02-22 10:12 pm S 2.9 5.1----29.92- 58.6 57.4----
2024-02-22 10:06 pm S 4.1 4.1----29.92- 58.3 57.4----
2024-02-22 10:00 pm S 2.9 5.1----29.92-0.02 58.1 57.4----
2024-02-22 09:54 pm S 2.9 5.1----29.92- 58.8 57.4----
2024-02-22 09:48 pm S 4.1 5.1----29.92- 59.0 57.4----
2024-02-22 09:42 pm S 1.9 5.1----29.93- 58.3 57.4----
2024-02-22 09:36 pm S 2.9 5.1----29.92- 58.8 57.4----
2024-02-22 09:30 pm S 4.1 7.0----29.92- 59.0 57.4----
2024-02-22 09:24 pm S 5.1 7.0----29.93- 59.4 57.4----
2024-02-22 09:18 pm S 5.1 7.0----29.93- 59.5 57.4----
2024-02-22 09:12 pm S 4.1 7.0----29.93- 59.4 57.4----
2024-02-22 09:06 pm S 4.1 7.0----29.93- 59.5 57.4----
2024-02-22 09:00 pm S 5.1 6.0----29.93-0.01 59.7 57.4----
2024-02-22 08:54 pm S 4.1 5.1----29.93- 59.9 57.4----
2024-02-22 08:48 pmSSE 2.9 5.1----29.93- 59.9 57.4----
2024-02-22 08:42 pm S 1.9 4.1----29.93- 60.1 57.4----
2024-02-22 08:36 pm S 1.9 4.1----29.93- 59.9 57.4----
2024-02-22 08:30 pm S 1.9 4.1----29.92- 60.3 57.4----
2024-02-22 08:24 pmSSE 2.9 5.1----29.92- 60.1 57.4----
2024-02-22 08:18 pmSSE 4.1 6.0----29.92- 60.3 57.4----
2024-02-22 08:12 pmSSE 4.1 6.0----29.92- 60.6 57.4----
2024-02-22 08:06 pmSSE 4.1 6.0----29.92- 60.4 57.4----
2024-02-22 08:00 pmSSE 4.1 6.0----29.93-0.02 60.6 57.4----
2024-02-22 07:54 pmSSE 4.1 6.0----29.93- 60.8 57.4----
2024-02-22 07:48 pmSSE 5.1 8.0----29.93- 60.6 57.4----
2024-02-22 07:42 pmSSE 5.1 8.0----29.92- 60.8 57.4----
2024-02-22 07:36 pmSSE 4.1 6.0----29.93- 61.0 57.4----
2024-02-22 07:30 pmSSE 4.1 6.0----29.94- 61.0 57.4----
2024-02-22 07:24 pmSSE 5.1 7.0----29.94- 61.0 57.4----
2024-02-22 07:18 pmSSE 5.1 8.0----29.94- 61.0 57.4----
2024-02-22 07:12 pmSSE 6.0 8.9----29.94- 61.2 57.4----
2024-02-22 07:06 pmSSE 5.1 8.9----29.93- 61.2 57.6----
2024-02-22 07:00 pmSSE 5.1 8.9----29.93-0.02 61.0 57.6----
2024-02-22 06:54 pmSSE 5.1 8.0----29.93- 61.0 57.6----
2024-02-22 06:48 pm SE 5.1 9.9----29.93- 61.0 57.6----
2024-02-22 06:42 pmSSE 6.0 11.1----29.93- 61.0 57.6----
2024-02-22 06:36 pmSSE 5.1 8.0----29.94- 61.0 57.7----
2024-02-22 06:30 pm SE 5.1 6.0----29.94-- 57.7----
2024-02-22 06:24 pm SE 5.1 7.0----29.94-- 57.7----
2024-02-22 06:18 pm SE 5.1 8.0----29.94- 61.2 57.7----
2024-02-22 06:00 pm SE 6.0 9.9----29.94-0.04- 57.7----
2024-02-22 05:54 pm SE 6.0 8.9----29.94-- 57.7----
2024-02-22 05:48 pm SE 6.0 9.9----29.94- 63.7 57.7----
2024-02-22 05:42 pm SE 8.0 11.1----29.94- 64.2 57.7----
2024-02-22 05:36 pm SE 5.1 9.9----29.94- 64.0 57.7----
2024-02-22 05:30 pm SE 6.0 11.1----29.94- 63.9 57.7----
2024-02-22 05:24 pm SE 7.0 12.0----29.94- 64.4 57.7----
2024-02-22 05:18 pm SE 6.0 11.1----29.94- 64.6 57.6----
2024-02-22 05:12 pm SE 7.0 13.0----29.95- 64.8 57.6----
2024-02-22 05:06 pm SE 7.0 13.0----29.94- 65.1 57.6----
2024-02-22 05:00 pm SE 7.0 12.0----29.95-0.06 65.1 57.7----
2024-02-22 04:54 pm SE 7.0 12.0----29.95- 66.4 57.7----
2024-02-22 04:48 pm SE 8.9 14.0----29.96- 65.8 57.7----
2024-02-22 04:42 pmESE 6.0 12.0----29.96- 65.1 57.7----
2024-02-22 04:36 pm SE 7.0 12.0----29.96- 65.3 57.7----
2024-02-22 04:30 pmESE 7.0 12.0----29.96- 65.5 57.9----
2024-02-22 04:24 pm SE 6.0 11.1----29.95- 66.0 57.9----
2024-02-22 04:18 pmESE 7.0 9.9----29.95- 66.7 57.9----
2024-02-22 04:12 pmSSE 7.0 11.1----29.96- 66.9 57.9----
2024-02-22 04:06 pm SE 5.1 9.9----29.96- 66.6 57.9----
2024-02-22 04:00 pm-------29.96-0.11 66.6 58.1----
2024-02-22 03:54 pm SE 6.0 11.1----29.96- 66.6 58.1----
2024-02-22 03:48 pm SE 6.0 12.0----29.96- 66.4 58.1----
2024-02-22 03:42 pm SE 6.0 9.9----29.97- 66.6 58.1----
2024-02-22 03:36 pmESE 7.0 11.1----29.97- 67.3 58.1----
2024-02-22 03:30 pm-------29.97- 66.9 58.1----
2024-02-22 03:24 pmSSE 7.0 11.1----29.98- 67.1 58.1----
2024-02-22 03:18 pmESE 5.1 8.9----29.98- 67.8 58.1----
2024-02-22 03:12 pm SE 6.0 9.9----29.98- 67.6 58.1----
2024-02-22 03:06 pmSSE 7.0 8.9----29.99- 67.8 58.1----
2024-02-22 03:00 pm SE 5.1 8.9----29.99-0.12 67.5 57.9----
2024-02-22 02:54 pmESE 5.1 8.9----29.99- 67.1 57.9----
2024-02-22 02:48 pmESE 6.0 9.9----29.99- 67.3 57.9----
2024-02-22 02:42 pm E 4.1 9.9----29.99- 66.6 57.9----
2024-02-22 02:36 pmESE 6.0 8.9----30.00- 67.3 57.9----
2024-02-22 02:30 pmESE 4.1 9.9----29.99- 67.1 57.9----
2024-02-22 02:24 pm E 5.1 8.9----30.00- 67.1 57.9----
2024-02-22 02:18 pmESE 6.0 8.9----30.00- 67.8 57.9----
2024-02-22 02:12 pmESE 2.9 9.9----30.00- 67.3 57.9----
2024-02-22 02:06 pm SE 4.1 8.9----30.00- 67.5 57.9----
2024-02-22 02:00 pmESE 5.1 8.9----30.01-0.13 67.1 57.9----
2024-02-22 01:54 pmESE 5.1 8.9----30.01- 67.8 57.9----
2024-02-22 01:48 pmESE 7.0 11.1----30.02- 67.1 57.9----
2024-02-22 01:42 pmSSE 6.0 8.9----30.02- 67.1 57.9----
2024-02-22 01:36 pm SE 7.0 11.1----30.03- 67.3 57.9----
2024-02-22 01:30 pm E 6.0 11.1----30.03- 67.5 57.9----
2024-02-22 01:24 pmESE 5.1 8.9----30.04- 67.3 57.9----
2024-02-22 01:18 pmESE 6.0 9.9----30.05- 67.3 57.7----
2024-02-22 01:12 pm SE 5.1 8.9----30.05- 67.3 57.7----
2024-02-22 01:06 pmESE 6.0 8.9----30.06- 68.0 57.7----
2024-02-22 01:00 pm SE 5.1 9.9----30.06-0.08 67.5 57.7----
2024-02-22 12:54 pmESE 5.1 8.0----30.07- 68.2 57.7----
2024-02-22 12:48 pmESE 5.1 12.0----30.08- 68.0 57.7----
2024-02-22 12:42 pm SE 4.1 7.0----30.09- 67.1 57.6----
2024-02-22 12:36 pm E 4.1 7.0----30.09- 67.3 57.6----
2024-02-22 12:30 pmSSE 2.9 6.0----30.09- 67.6 57.6----
2024-02-22 12:24 pmESE 4.1 7.0----30.10- 68.0 57.6----
2024-02-22 12:18 pm NE 1.0 7.0----30.10- 66.9 57.6----
2024-02-22 12:12 pm SE 4.1 6.0----30.10- 67.5 57.6----
2024-02-22 12:06 pm SE 5.1 7.0----30.11- 66.7 57.6----
2024-02-22 12:00 pm SE 1.9 6.0----30.11-0.05 66.4 57.6----
2024-02-22 11:54 am E 2.9 7.0----30.11- 66.2 57.6----
2024-02-22 11:48 amESE 4.1 6.0----30.11- 66.6 57.6----
2024-02-22 11:42 amESE 2.9 6.0----30.12- 67.1 57.6----
2024-02-22 11:36 amSSE 2.9 5.1----30.12- 65.8 57.6----
2024-02-22 11:30 am SE 4.1 7.0----30.12- 67.8 57.6----
2024-02-22 11:24 amSSE 4.1 6.0----30.13- 66.6 57.4----
2024-02-22 11:18 amESE 2.9 5.1----30.13- 65.5 57.4----
2024-02-22 11:12 amSSE 4.1 5.1----30.13- 61.5 57.4----
2024-02-22 11:06 amWSW 1.9 2.9----30.13- 60.4 57.4----
2024-02-22 11:00 amWNW 2.9 4.1----30.14-0.02 59.0 57.4----
2024-02-22 10:54 am W 1.9 2.9----30.14- 58.5 57.2----
2024-02-22 10:48 am W 1.9 2.9----30.14-------
2024-02-22 10:42 amWNW 1.9 2.9----30.14-------
2024-02-22 10:36 amWNW 2.9 2.9----30.15-------
2024-02-22 10:30 amWNW 1.9 2.9----30.15- 56.3 57.2----
2024-02-22 10:24 amWNW 1.9 2.9----30.15- 55.8 57.0----
2024-02-22 10:18 amWNW 1.9 2.9----30.15- 55.4 57.0----
2024-02-22 10:12 am W 1.9 2.9----30.15- 55.0 57.0----
2024-02-22 10:06 am W 1.9 2.9----30.15- 55.4 57.0----
2024-02-22 10:00 am W 1.9 2.9----30.15+0.00 55.0 56.8----
2024-02-22 09:54 am W 2.9 4.1----30.15- 54.9 56.8----
2024-02-22 09:48 am W 4.1 4.1----30.15- 55.9 56.8----
2024-02-22 09:42 amWNW 2.9 4.1----30.15- 58.5 56.8----
2024-02-22 09:36 amWNW 2.9 4.1----30.15- 57.6 56.8----
2024-02-22 09:30 amWNW 2.9 4.1----30.15- 55.9 56.7----
2024-02-22 09:24 amWNW 2.9 4.1----30.15- 54.5 56.7----
2024-02-22 09:18 amWNW 1.9 4.1----30.16- 53.8 56.7----
2024-02-22 09:12 am NW 2.9 5.1----30.16- 53.4 56.7----
2024-02-22 09:06 amWNW 4.1 5.1----30.16- 54.1 56.7----
2024-02-22 09:00 amWNW 2.9 5.1----30.16+0.00 53.8 56.7----
2024-02-22 08:54 amWNW 2.9 5.1----30.16- 53.8 56.7----
2024-02-22 08:48 amWNW 2.9 4.1----30.16- 52.5 56.7----
2024-02-22 08:42 amWNW 2.9 2.9----30.16- 51.4 56.7----
2024-02-22 08:36 am NW 1.9 2.9----30.16- 51.1 56.7----
2024-02-22 08:30 amNNW 1.9 2.9----30.15- 50.9 56.7----
2024-02-22 08:24 am NW 1.0 2.9----30.15- 50.9 56.7----
2024-02-22 08:18 am NW 1.9 2.9----30.15- 50.5 56.7----
2024-02-22 08:12 amWNW 1.9 2.9----30.15- 50.9 56.7----
2024-02-22 08:06 am NW 1.9 2.9----30.16- 50.4 56.7----
2024-02-22 08:00 am NW 1.0 2.9----30.15+0.01 49.8 56.7----
2024-02-22 07:54 am NW 2.9 2.9----30.15- 49.6 56.7----
2024-02-22 07:48 amWNW 1.9 4.1----30.16- 49.5 56.7----
2024-02-22 07:42 am NW 1.9 4.1----30.16- 49.6 56.7----
2024-02-22 07:36 am NW 1.9 4.1----30.16- 49.5 56.7----
2024-02-22 07:30 am NW 2.9 4.1----30.16- 49.6 56.7----
2024-02-22 07:24 amWNW 1.9 2.9----30.15- 49.5 56.8----
2024-02-22 07:18 amWNW 1.9 4.1----30.15- 49.3 56.8----
2024-02-22 07:12 amWNW 1.9 2.9----30.15- 49.5 56.8----
2024-02-22 07:06 am NW 1.9 2.9----30.15- 49.8 56.8----
2024-02-22 07:00 amWNW 1.0 1.9----30.15+0.00 49.6 56.8----
2024-02-22 06:54 am NW 1.0 1.9----30.15- 49.8 57.0----
2024-02-22 06:48 am-------30.15- 49.6 57.0----
2024-02-22 06:42 am NW 1.0 1.9----30.15- 48.9 57.0----
2024-02-22 06:36 am NW 1.9 1.9----30.15- 48.9 57.0----
2024-02-22 06:30 amNNW 1.0 1.9----30.15- 48.7 57.2----
2024-02-22 06:24 am NW 1.0 1.9----30.15- 48.7 57.2----
2024-02-22 06:18 am NW 1.0 1.9----30.15- 48.4 57.2----
2024-02-22 06:12 am NW 1.9 2.9----30.15- 48.4 57.2----
2024-02-22 06:06 amNNW 1.9 2.9----30.15- 48.6 57.2----
2024-02-22 06:00 am NW 1.9 2.9----30.15+0.00- 57.2----
2024-02-22 05:54 am NW 1.9 2.9----30.15-- 57.2----
2024-02-22 05:48 am NW 1.9 1.9----30.15- 48.4 57.2----
2024-02-22 05:42 am-------30.15- 48.4 57.2----
2024-02-22 05:36 amNNW 1.9 1.9----30.15- 48.6 57.2----
2024-02-22 05:30 amNNW 1.0 1.9----30.15- 48.4 57.0----
2024-02-22 05:24 am- 0.0 1.9----30.15- 48.0 57.0----
2024-02-22 05:18 am- 0.0 1.0----30.15- 46.4 57.0----
2024-02-22 05:12 am- 0.0 0.0----30.14- 46.2 57.0----
2024-02-22 05:06 am- 0.0 1.0----30.14- 46.4 57.2----
2024-02-22 05:00 amSSE 1.0 1.0----30.14-0.03 46.8 57.2----
2024-02-22 04:54 amSSE 1.0 1.0----30.14- 47.1 57.2----
2024-02-22 04:48 am-------30.14- 47.5 57.2----
2024-02-22 04:42 am- 0.0 0.0----30.14- 49.1 57.2----
2024-02-22 04:36 am- 0.0 1.0----30.14- 49.6 57.2----
2024-02-22 04:30 am- 0.0 1.9----30.15- 49.1 57.2----
2024-02-22 04:24 am- 0.0 1.0----30.15- 49.1 57.2----
2024-02-22 04:18 am- 0.0 0.0----30.15- 48.6 57.2----
2024-02-22 04:12 am- 0.0 1.0----30.15- 48.6 57.2----
2024-02-22 04:06 am- 0.0 1.0----30.15- 48.7 57.2----
2024-02-22 04:00 am- 0.0 1.0----30.15-0.03 48.9 57.2----
2024-02-22 03:54 am- 0.0 1.0----30.15- 48.7 57.2----
2024-02-22 03:48 am W 1.0 1.9----30.15- 48.6 57.2----
2024-02-22 03:42 am W 1.0 1.9----30.15- 48.4 57.2----
2024-02-22 03:36 am W 1.0 1.9----30.15- 48.2 57.2----
2024-02-22 03:30 am- 0.0 1.0----30.14- 48.2 57.2----
2024-02-22 03:24 am- 0.0 1.0----30.14- 48.0 57.2----
2024-02-22 03:18 am- 0.0 1.9----30.15- 47.5 57.2----
2024-02-22 03:12 am W 1.9 2.9----30.15- 47.7 57.2----
2024-02-22 03:06 am W 2.9 2.9----30.15- 48.4 57.2----
2024-02-22 03:00 am W 2.9 4.1----30.15-0.03 48.4 57.2----
2024-02-22 02:54 am W 1.9 2.9----30.15- 48.0 57.2----
2024-02-22 02:48 amWNW 1.9 2.9----30.15- 47.8 57.2----
2024-02-22 02:42 am W 2.9 2.9----30.16- 47.7 57.4----
2024-02-22 02:36 am W 1.9 2.9----30.16- 47.8 57.4----
2024-02-22 02:30 am W 2.9 2.9----30.16- 48.4 57.4----
2024-02-22 02:24 am W 1.9 2.9----30.16- 48.2 57.4----
2024-02-22 02:18 am W 1.9 2.9----30.17- 48.2 57.4----
2024-02-22 02:12 am W 1.9 2.9----30.17- 48.4 57.4----
2024-02-22 02:06 am W 2.9 4.1----30.17- 48.4 57.4----
2024-02-22 02:00 am W 2.9 4.1----30.17-0.03 48.7 57.4----
2024-02-22 01:54 am W 2.9 5.1----30.17- 48.9 57.4----